Flag for India Weather past 2 weeks in Ahmedabad, Gujarat, India

72 °F

Scattered clouds.

Feels Like: 77 °F
Forecast: 56 / 89 °F
Wind: 8 mph from Northeast

Location: Ahmadabad Airport

Current Time: Nov 28, 2015 at 10:35:19 AM

Latest Report: Nov 28, 2015 at 9:30 AM

Visibility: 2 mi

Pressure: 30.01 "Hg

Humidity: 36%

Dew point: 43 °F

Location of AhmedabadLocation

Historic Weather in Ahmedabad — Graph


Ahmedabad temperature yesterday

Maximum temperature yesterday: 84 °F (at 2:30 PM)
Minimum temperature yesterday: 59 °F (at 6:30 AM)
Average temperature yesterday: 71 °F

Past Weeks' High & Low Weather Summary

High100 °F (Nov 13, 2:10 PM)78% (Nov 14, 1:10 AM)30.07 "Hg (Nov 14, 1:10 AM)
Low55 °F (Nov 28, 2:30 AM)14% (Nov 27, 3:00 PM)29.80 "Hg (Nov 14, 3:40 PM)
Average79 °F44%29.91 "Hg
* Reported Nov 13 10:10 AM — Nov 28 9:30 AM, Ahmedabad, Weather by CustomWeather, © 2015

Note: Actual official high and low records may vary slightly from our data, if they occured in-between our weather recording intervals... More about our weather records


Ahmedabad weather history for previous 24 hours

Time TempWeatherWind HumidityBarometerVisibility
9:30 AM
Sat, Nov 28
72 °FScattered clouds.8 mph36%30.01 "Hg1 mi
9:00 AM66 °FScattered clouds.6 mph43%30.01 "Hg1 mi
8:30 AM64 °FScattered clouds.5 mph49%29.98 "Hg1 mi
8:00 AM59 °FScattered clouds.7 mph59%29.98 "Hg1 mi
7:30 AM55 °FPassing clouds.3 mph63%29.98 "Hg1 mi
7:00 AM55 °FPassing clouds.3 mph63%29.95 "Hg2 mi
5:00 AM55 °FHaze.3 mph59%29.92 "Hg2 mi
4:30 AM55 °FHaze.3 mph63%29.92 "Hg2 mi
4:00 AM55 °FHaze.3 mph59%29.92 "Hg2 mi
3:30 AM55 °FHaze.No wind59%29.89 "Hg2 mi
3:00 AM57 °FHaze.No wind55%29.89 "Hg2 mi
2:30 AM55 °FHaze.No wind63%29.89 "Hg2 mi
2:00 AM57 °FHaze.No wind63%29.89 "Hg2 mi
1:30 AM57 °FHaze.No wind72%29.89 "Hg2 mi
1:00 AM59 °FClear.No wind59%29.89 "Hg2 mi
12:30 AM59 °FClear.No wind59%29.89 "Hg2 mi
11:30 PM
Fri, Nov 27
61 °FClear.No wind59%29.89 "Hg2 mi
11:00 PM63 °FClear.No wind56%29.89 "Hg2 mi
10:30 PM64 °FClear.No wind49%29.89 "Hg2 mi
10:00 PM64 °FClear.No wind49%29.89 "Hg2 mi
9:30 PM66 °FClear.3 mph43%29.89 "Hg2 mi
9:00 PM68 °FClear.No wind43%29.89 "Hg2 mi
8:30 PM66 °FClear.No wind43%29.89 "Hg2 mi
8:00 PM68 °FClear.No wind43%29.86 "Hg2 mi
7:30 PM70 °FClear.2 mph40%29.86 "Hg2 mi
7:00 PM70 °FClear.No wind46%29.86 "Hg2 mi
6:00 PM73 °FClear.No wind31%29.83 "Hg2 mi
5:30 PM77 °FClear.2 mph28%29.83 "Hg3 mi
5:00 PM79 °FClear.5 mph21%29.80 "Hg3 mi
4:30 PM81 °FClear.8 mph20%29.80 "Hg4 mi
4:00 PM82 °FClear.7 mph20%29.80 "Hg4 mi
3:30 PM84 °FClear.8 mph18%29.80 "Hg4 mi
3:00 PM84 °FClear.9 mph14%29.83 "Hg4 mi
2:30 PM84 °FClear.7 mph18%29.83 "Hg4 mi
2:00 PM82 °FClear.7 mph19%29.83 "Hg4 mi
1:30 PM82 °FClear.7 mph17%29.86 "Hg4 mi
12:00 PM82 °FClear.5 mph20%29.89 "Hg4 mi
11:30 AM81 °FClear.6 mph23%29.92 "Hg4 mi
11:00 AM79 °FClear.5 mph24%29.95 "Hg3 mi
10:30 AM77 °FClear.6 mph24%29.95 "Hg3 mi
Weather by CustomWeather, © 2015

See weather overviewHow to use our weather pages